This is the latest recevied weather packets stored in our database for station/object WI0K. If no packets are shown the sender has not sent any weather packets the latest 10 day(s).
| Time | Temp. | Humidity | Pressure | Rain* | Wind** | Luminosity | Snow |
|---|---|---|---|---|---|---|---|
| 1777412537 | 13.33° C | 39% | 829.9 hPa | 0 mm | - | 847 W/m² | - |
| 1777412237 | 13.33° C | 40% | 829.8 hPa | 0 mm | - | 921 W/m² | - |
| 1777411936 | 12.78° C | 41% | 829.9 hPa | 0 mm | - | 930 W/m² | - |
| 1777411635 | 12.78° C | 41% | 829.9 hPa | 0 mm | - | 864 W/m² | - |
| 1777411335 | 12.22° C | 43% | 1016.5 hPa | 0 mm | - | 830 W/m² | - |
| 1777411034 | 12.22° C | 43% | 829.8 hPa | 0 mm | - | 837 W/m² | - |
| 1777410733 | 12.22° C | 43% | 829.8 hPa | 0 mm | - | 857 W/m² | - |
| 1777410432 | 12.78° C | 42% | 829.8 hPa | 0 mm | - | 900 W/m² | - |
| 1777410132 | 12.78° C | 42% | 1016.6 hPa | 0 mm | - | 999 W/m² | - |
| 1777409831 | 12.22° C | 43% | 1016.8 hPa | 0 mm | - | 378 W/m² | - |
| 1777409530 | 12.22° C | 42% | 1016.9 hPa | 0 mm | - | 328 W/m² | - |
| 1777409230 | 12.22° C | 42% | 830.1 hPa | 0 mm | - | 346 W/m² | - |
| 1777408929 | 12.78° C | 42% | 1016.9 hPa | 0 mm | - | 385 W/m² | - |
| 1777408628 | 13.33° C | 41% | 830.1 hPa | 0 mm | - | 400 W/m² | - |
| 1777408328 | 12.78° C | 41% | 1016.9 hPa | 0 mm | - | 963 W/m² | - |
| 1777408027 | 12.22° C | 42% | 1016.8 hPa | 0 mm | - | 949 W/m² | - |
| 1777407726 | 12.22° C | 44% | 830 hPa | 0 mm | - | 795 W/m² | - |
| 1777407426 | 12.22° C | 45% | 830 hPa | 0 mm | - | 999 W/m² | - |
| 1777407125 | 12.22° C | 44% | 1016.8 hPa | 0 mm | - | 664 W/m² | - |
| 1777406824 | 12.22° C | 45% | 1016.6 hPa | 0 mm | - | 829 W/m² | - |
| 1777406524 | 12.22° C | 46% | 829.9 hPa | 0 mm | - | 829 W/m² | - |
| 1777406223 | 12.22° C | 45% | 829.9 hPa | 0 mm | - | 622 W/m² | - |
| 1777405922 | 12.22° C | 45% | 829.9 hPa | 0 mm | - | 670 W/m² | - |
| 1777405622 | 12.22° C | 41% | 829.9 hPa | 0 mm | - | 999 W/m² | - |
| 1777405321 | 12.22° C | 45% | 829.9 hPa | 0 mm | - | 999 W/m² | - |
* Rain latest hour (hover to see other rain measurements)
** Current wind speed in m/s (hover to see current wind gust speed)